Accueil
METAR-TAF:

METAR-TAF

Aéroports :

Épinal, France

Aéroport d'Épinal-Mirecourt

latitude: 48-19-31N, longitude: 6-04-00E, altitude: 330 m

Observation

Le bulletin a été fait il y a 38 minutes, à 06:00 UTC
Vent 4 kt de ouest/nord-ouest
Température 19°C
Humidité 88%
Pression 1019 hPa
Visibilité: 9000 m
Quelques nuages à une hauteur de 700 ft
Nuages fragmentés à une hauteur de 3600 ft

METAR: LFSG 240600Z AUTO 29004KT 9000 FEW007 BKN036 19/17 Q1019

Heure: 08:38 (06:38 UTC)


TAF: absent

Observations et prévisions météorologiques de plus de 4000 aéroports (messages METAR et TAF).

Les stations disponibles sont représentées par des disques jaunes et rouges sur la carte.

Passer la souris dessus pour voir le nom de la station.

Cliquer dessus pour voir les observations et prévisions météorologiques.

Pour changer de carte: cliquez sur les boutons verts avec une croix noire pour zoomer, sur le bouton vert avec un tiret pour effectuer un zoom arrière, ou sur les flèches vertes pour les cartes adjacentes.


METAR-TAF: